Back to catalog

QIANFAN-133

AliveCommunicationsPO
NORAD 69079·PAYLOAD·🇨🇳 China

Launched May 12, 2026 from Taiyuan Satellite Launch Center

Loading…

Next Passes (next 24 hours)

TLE

FreshSource: Space-Track

Epoch: Sep 14, 2026, 14:52 UTC

1 69079U 26104G   26257.61970856  .00000122  00000-0  17069-3 0  9999
2 69079  88.9911 332.3452 0001915 112.6757 247.4597 13.51030203 17224

Track QIANFAN-133 in real time with AllMySat

Download on the App Store